This demonstration page uses our WeatherBlox Daily Observations layout. Learn more.

Hourly Observations for January 1, 2019

Temp ( °F °C ) Dew Point ( °F °C ) Humidity (%) Winds ( mph kmh ) Pressure ( in mb ) Visibility ( mi km ) Precip ( " mm )
12:15 am 00:15 Cloudy 7 -13.7 -2 -19 65 65 N 20 31 30.56 1035 10 16.0934 0 0
12:35 am 00:35 Cloudy 7 -13.7 -2 -19 65 65 N 21 33 30.56 1035 10 16.0934 0 0
12:55 am 00:55 Cloudy 7 -14 -3 -19.4 64 64 N 18 30 30.56 1035 10 16.0934 0 0
1:15 am 01:15 Cloudy 7 -14.1 -3 -19.5 64 64 N 18 30 30.56 1035 10 16.0934 0 0
1:35 am 01:35 Mostly Cloudy 7 -14.1 -3 -19.2 66 66 N 17 28 30.56 1035 10 16.0934 0 0
1:55 am 01:55 Cloudy 7 -14 -3 -19.2 65 65 N 21 33 30.56 1035 10 16.0934 0 0
2:15 am 02:15 Cloudy 7 -14 -2 -19 66 66 NNW 17 28 30.56 1035 10 16.0934 0 0
2:35 am 02:35 Cloudy 7 -14 -3 -19.2 65 65 NNW 16 26 30.59 1036 10 16.0934 0 0
2:55 am 02:55 Cloudy 7 -14 -2 -19 66 66 NNW 17 28 30.59 1036 10 16.0934 0 0
3:15 am 03:15 Cloudy 7 -14.1 -2 -19.1 66 66 N 20 31 30.59 1036 10 16.0934 0 0
3:35 am 03:35 Cloudy 7 -14.1 -2 -19.1 66 66 N 16 26 30.59 1036 10 16.0934 0 0
3:55 am 03:55 Cloudy 7 -14 -2 -19 66 66 NNW 20 31 30.59 1036 10 16.0934 0 0
4:15 am 04:15 Cloudy 7 -14.1 -2 -18.8 68 68 N 14 22 30.59 1036 10 16.0934 0 0
4:35 am 04:35 Cloudy 7 -14 -2 -18.7 68 68 NNW 20 31 30.59 1036 10 16.0934 0 0
4:55 am 04:55 Cloudy 7 -13.9 -1 -18.4 69 69 NNW 16 26 30.59 1036 10 16.0934 0 0
5:15 am 05:15 Cloudy 7 -14 -1 -18.6 68 68 N 16 26 30.59 1036 10 16.0934 0 0
5:35 am 05:35 Cloudy 7 -14 -1 -18.4 70 70 NNW 14 22 30.59 1036 10 16.0934 0 0
5:55 am 05:55 Cloudy 7 -14 -1 -18.6 68 68 N 17 28 30.59 1036 10 16.0934 0 0
6:15 am 06:15 Cloudy 7 -14 -1 -18.5 69 69 N 15 24 30.59 1036 10 16.0934 0 0
6:35 am 06:35 Cloudy 7 -13.8 0 -18 71 71 N 15 24 30.59 1036 10 16.0934 0 0
6:55 am 06:55 Cloudy 7 -14 -1 -18.4 70 70 N 16 26 30.62 1037 10 16.0934 0 0
7:15 am 07:15 Cloudy 7 -14 -1 -18.5 69 69 N 15 24 30.62 1037 10 16.0934 0 0
7:35 am 07:35 Cloudy 7 -13.8 0 -18 71 71 N 15 24 30.62 1037 10 16.0934 0 0
7:55 am 07:55 Cloudy 7 -13.8 -1 -18.1 70 70 N 12 19 30.62 1037 10 16.0934 0 0
8:15 am 08:15 Cloudy 7 -13.8 -1 -18.1 70 70 N 14 22 30.62 1037 10 16.0934 0 0
8:35 am 08:35 Cloudy 7 -13.7 0 -17.9 71 71 N 14 22 30.62 1037 10 16.0934 0 0
8:55 am 08:55 Cloudy 7 -13.7 -1 -18.1 70 70 N 14 22 30.62 1037 10 16.0934 0 0
9:15 am 09:15 Cloudy 8 -13.6 -1 -18.1 69 69 N 13 20 30.62 1037 10 16.0934 0 0
9:35 am 09:35 Cloudy 8 -13.5 0 -17.6 72 72 N 12 19 30.65 1038 10 16.0934 0 0
9:55 am 09:55 Cloudy 8 -13.5 0 -18 69 69 N 12 19 30.65 1038 10 16.0934 0 0
10:15 am 10:15 Cloudy 8 -13.3 0 -18 68 68 N 12 19 30.65 1038 10 16.0934 0 0
10:35 am 10:35 Cloudy 9 -12.8 0 -17.9 66 66 N 10 17 30.65 1038 10 16.0934 0 0
10:55 am 10:55 Mostly Cloudy 10 -12.4 1 -17.5 66 66 N 9 15 30.65 1038 10 16.0934 0 0
11:15 am 11:15 Mostly Cloudy 9 -12.6 0 -17.7 66 66 N 8 13 30.65 1038 10 16.0934 0 0
11:35 am 11:35 Mostly Cloudy 10 -12.3 0 -17.7 64 64 N 9 15 30.62 1037 10 16.0934 0 0
11:55 am 11:55 Mostly Cloudy 10 -12.1 1 -17.2 66 66 N 8 13 30.59 1036 10 16.0934 0 0
12:15 pm 12:15 Sunny 10 -12 1 -17 67 67 N 9 15 30.56 1035 10 16.0934 0 0
12:35 pm 12:35 Sunny 10 -12 1 -17 67 67 N 6 9 30.56 1035 10 16.0934 0 0
12:55 pm 12:55 Partly Cloudy 10 -12.1 1 -17.1 67 67 N 7 11 30.59 1036 10 16.0934 0 0
1:15 pm 13:15 Cloudy 11 -11.7 2 -16.9 66 66 NNW 6 9 30.56 1035 10 16.0934 0 0
1:35 pm 13:35 Cloudy 11 -11.5 2 -16.4 67 67 NNW 6 9 30.53 1034 10 16.0934 0 0
1:55 pm 13:55 Cloudy 12 -11.2 2 -16.6 65 65 N 7 11 30.53 1034 10 16.0934 0 0
2:15 pm 14:15 Cloudy 12 -11.2 2 -16.4 66 66 NNW 5 7 30.53 1034 10 16.0934 0 0
2:35 pm 14:35 Cloudy 12 -11.1 2 -16.4 65 65 N 5 7 30.5 1033 10 16.0934 0 0
2:55 pm 14:55 Cloudy 12 -11.1 3 -16.3 66 66 N 3 6 30.5 1033 10 16.0934 0 0
3:15 pm 15:15 Cloudy 12 -11 2 -16.4 65 65 N 5 7 30.5 1033 10 16.0934 0 0
3:35 pm 15:35 Cloudy 13 -10.7 3 -16.3 64 64 Calm 30.5 1033 10 16.0934 0 0
3:55 pm 15:55 Cloudy 13 -10.7 3 -16.3 64 64 Calm 30.5 1033 10 16.0934 0 0
4:15 pm 16:15 Cloudy 13 -10.6 3 -16.3 63 63 Calm 30.5 1033 10 16.0934 0 0
4:35 pm 16:35 Cloudy 13 -10.6 3 -16 65 65 Calm 30.48 1032 10 16.0934 0 0
4:55 pm 16:55 Cloudy 13 -10.6 3 -16 65 65 Calm 30.48 1032 10 16.0934 0 0
5:15 pm 17:15 Cloudy 13 -10.8 3 -16.2 65 65 Calm 30.48 1032 10 16.0934 0 0
5:35 pm 17:35 Cloudy 13 -10.7 3 -16.2 64 64 Calm 30.48 1032 10 16.0934 0 0
5:55 pm 17:55 Cloudy 13 -10.7 3 -16.2 64 64 Calm 30.48 1032 10 16.0934 0 0
6:15 pm 18:15 Cloudy 13 -10.6 3 -16.1 64 64 Calm 30.45 1031 10 16.0934 0 0
6:35 pm 18:35 Cloudy 13 -10.5 4 -15.8 65 65 Calm 30.48 1032 10 16.0934 0 0
6:55 pm 18:55 Cloudy 13 -10.5 4 -15.5 67 67 SSW 5 7 30.45 1031 10 16.0934 0 0
7:15 pm 19:15 Cloudy 13 -10.5 5 -15 70 70 Calm 30.45 1031 10 16.0934 0 0
7:35 pm 19:35 Cloudy 13 -10.3 5 -14.8 70 70 SW 5 7 30.45 1031 10 16.0934 0 0
7:55 pm 19:55 Cloudy 13 -10.3 6 -14.5 72 72 SSW 3 6 30.45 1031 10 16.0934 0 0
8:15 pm 20:15 Cloudy 13 -10.5 5 -15.1 69 69 Calm 30.45 1031 10 16.0934 0 0
8:35 pm 20:35 Cloudy 13 -10.5 6 -14.7 72 72 SW 5 7 30.45 1031 10 16.0934 0 0
8:55 pm 20:55 Cloudy 13 -10.5 6 -14.6 72 72 SW 6 9 30.45 1031 10 16.0934 0 0
9:15 pm 21:15 Cloudy 13 -10.5 6 -14.5 73 73 SSW 7 11 30.45 1031 10 16.0934 0 0
9:35 pm 21:35 Cloudy 13 -10.5 6 -14.6 72 72 SSW 9 15 30.39 1029 10 16.0934 0 0
9:55 pm 21:55 Cloudy 13 -10.4 6 -14.6 72 72 SW 7 11 30.39 1029 10 16.0934 0 0
10:15 pm 22:15 Cloudy 13 -10.3 7 -14.1 74 74 SW 8 13 30.39 1029 10 16.0934 0 0
10:35 pm 22:35 Cloudy 13 -10.3 6 -14.4 72 72 SW 10 17 30.39 1029 10 16.0934 0 0
10:55 pm 22:55 Mostly Cloudy 13 -10.6 6 -14.6 73 73 SW 10 17 30.36 1028 10 16.0934 0 0
11:15 pm 23:15 Partly Cloudy 12 -11 6 -14.7 74 74 SSW 9 15 30.39 1029 10 16.0934 0 0
11:35 pm 23:35 Clear 12 -11.2 6 -14.6 76 76 SSW 9 15 30.39 1029 10 16.0934 0 0
11:55 pm 23:55 Clear 11 -11.5 6 -14.6 78 78 SSW 10 17 30.36 1028 10 16.0934 0 0

Powered by AerisWeather